User: anonymous   Login
Location: Nairn
(57.5833°N, 3.8667°W)
Time: 16:05:08
(UTC+00:00)
Language:

UNK - Orbit

View from above orbital plane
View from above orbital plane
View from above satellite
View from above satellite

Ground track
Ground track

The orbit data is extracted from the following two-line orbital elements,

1 27940U 03042B   22266.86947901  .00000402  00000-0  83037-4 0  9994
2 27940  98.2262  43.3072 0013230 327.2073  32.8307 14.65569223 14815
Epoch (UTC): 23 September 2022 20:52:02
Eccentricity: 0.0013230
inclination: 98.2262°
perigee height: 666 km
apogee height: 684 km
right ascension of ascending node: 43.3072°
argument of perigee: 327.2073°
revolutions per day: 14.65569223
mean anomaly at epoch: 32.8307°
orbit number at epoch: 1481

The dashed part of the orbit path shows where the satellite is in the earth's shadow,  

DLR